Weather in Novyy Multan

Russia / Udmurt Republic     57°09′22″N   52°17′12″E
temp.,
°C
wind,
m/s
gust,
m/s
humid.,
%
clouds,
%
prec.,
mm/h
press.,
hPa
HPBL,
m
16 april, fri
fri1601:00+7ne51187100 0.1 1022477
04:00+5ne51183100 0.1 1025618
07:00+4ne51280100 0.0 1026537
10:00+5ene5107192 0.0 1027566
13:00+9ne57485 0.0 1027965
16:00+9ene56460 0.0 10271079
19:00+6ne38620 0.0 1028220
22:00+2ne310750 0.0 1029213
17 april, sat
sat1701:000ne310811 0.0 1029197
04:00−1ne38845 0.0 1030158
07:00+2ne377519 0.0 1030205
10:00+7ne35515 0.0 1029833
13:00+9nne34455 0.0 10281266
16:00+10n34455 0.0 10271384
19:00+7nnw22635 0.0 102612
22:00+4nnw22765 0.0 102724
18 april, sun
sun1801:00+3nnw22824 0.0 102613
04:00+2n22871 0.0 102616
07:00+3nnw15820 0.0 1027145
10:00+8nne45627 0.0 1027963
13:00+6ne566589 0.0 10281099
16:00+5ne4664100 0.1 10291212
19:00+5ene385391 0.0 1030356
22:00+1ene412585 0.0 1031453
19 april, mon
mon1901:000e4116568 0.0 1033453
04:00−1e411594 0.0 1035406
07:00−1e511495 0.0 1036620
10:00+3e69300 0.0 10361326
13:00+5e68250 0.0 10351507
16:00+6e57255 0.0 10351599
19:00+3e48375 0.0 1035326
22:00−1e310520 0.0 1036230
20 april, tue
tue2001:00−1e310530 0.0 1036256
04:00−1e39530 0.0 1037250
07:000ese48480 0.0 1037326
10:00+5se46340 0.0 1036998
13:00+8se46260 0.0 10351256
16:00+9se45280 0.0 10341271
19:00+5se23450 0.0 103344
22:00+1se26570 0.0 103384